DateTimeUTC,F1_A11,F1_S11,BsB_S11,BsG_S11,BsR_S11,BbsB_S11,BbsG_S11,BbsR_S11,BaB_A11,BaG_A11,BaR_A11,T_S11,U_S11,P_S11,T1_A11
2020-06-09T00:00:00Z,00000380,20000600,,,,,,,,,,25.8,05.4,0668.6,31.2
2020-06-09T00:01:00Z,00000380,20000600,,,,,,,,,,25.8,05.4,0668.6,31.1
2020-06-09T00:02:00Z,00000380,20000600,,,,,,,,,,25.8,05.4,0668.6,31.1
2020-06-09T00:03:00Z,00000380,60000600,,,,,,,,,,25.8,05.4,0668.6,31.2
2020-06-09T00:04:00Z,00000380,40000600,-000.19,0000.12,-000.37,-000.37,-000.02,0000.09,0000.06,0000.08,0000.12,25.6,05.5,0669.6,31.2
2020-06-09T00:05:00Z,00000380,00000600,0000.15,-000.38,0000.16,-000.27,0000.30,-000.10,-000.08,0000.06,0000.13,25.6,05.5,0669.6,31.2
2020-06-09T00:06:00Z,00000380,00000600,-000.31,-000.20,-000.07,-000.63,-000.56,-000.26,0000.23,0000.19,-000.01,25.6,05.6,0669.6,31.1
2020-06-09T00:07:00Z,00000380,00000600,0000.40,-000.17,0000.07,-000.68,0000.25,-000.12,0000.08,-000.14,-000.06,25.6,05.7,0669.7,31.2
2020-06-09T00:08:00Z,00000380,00000600,-000.90,-000.23,-000.15,0000.10,-000.44,0000.24,-000.04,0000.07,0000.06,25.5,05.6,0669.7,31.1
2020-06-09T00:09:00Z,00000380,00000600,-000.03,0000.37,-000.05,0000.46,0000.00,0000.12,-000.06,0000.04,-000.03,25.6,05.6,0669.7,31.1
2020-06-09T00:10:00Z,00000380,00000600,0000.27,-000.01,-000.15,0000.33,-000.41,-000.11,0000.12,0000.10,0000.08,25.6,05.6,0669.7,31.1
2020-06-09T00:11:00Z,00000380,00000600,-000.27,0000.35,-000.28,0000.56,0000.10,-000.37,-000.02,-000.33,-000.00,25.5,05.6,0669.7,31.2
2020-06-09T00:12:00Z,00000380,00000600,-000.19,-000.36,-000.21,-000.51,0000.01,0000.68,0000.30,0000.31,0000.17,25.5,05.7,0669.7,31.1
2020-06-09T00:13:00Z,00000380,00000600,-000.22,0000.17,-000.43,-000.11,-000.31,0000.14,-000.13,0000.08,0000.07,25.5,05.8,0669.7,31.2
2020-06-09T00:14:00Z,00000380,00000600,0000.97,0000.13,-000.10,0000.35,-000.07,-000.11,0000.09,0000.05,-000.07,25.5,05.7,0669.7,31.1
2020-06-09T00:15:00Z,00000380,00000600,0000.61,0000.12,-000.21,-000.61,-000.06,-000.18,-000.03,-000.14,-000.13,25.5,05.7,0669.7,31.1
2020-06-09T00:16:00Z,00000380,00000600,0000.96,0000.02,-000.19,-000.34,-000.27,-000.09,0000.06,0000.19,0000.12,25.5,05.7,0669.7,31.2
2020-06-09T00:17:00Z,00000380,00000600,-000.23,0000.24,-000.28,-000.28,-000.42,0000.23,0000.04,-000.05,0000.10,25.5,05.8,0669.7,31.2
2020-06-09T00:18:00Z,00000380,00000600,0000.75,0000.17,-000.06,0000.56,-000.22,-000.33,-000.04,0000.16,-000.08,25.5,05.8,0669.7,31.1
2020-06-09T00:19:00Z,00000380,00000600,-000.39,0000.08,0000.31,0000.43,-000.45,0000.40,0000.31,0000.12,0000.13,25.5,05.9,0669.7,31.1
2020-06-09T00:20:00Z,00000380,00000600,0000.35,-000.60,-000.52,0000.16,-000.16,-000.12,-000.23,-000.07,0000.06,25.5,05.9,0669.7,31.1
2020-06-09T00:21:00Z,00000380,00000600,0000.53,-000.52,0000.15,-000.28,-000.10,0000.69,0000.06,-000.01,-000.08,25.5,05.9,0669.7,31.1
2020-06-09T00:22:00Z,00000380,00000600,0001.10,0000.21,0000.07,-000.16,0000.03,-000.17,0000.21,-000.01,-000.02,25.5,05.9,0669.7,31.2
2020-06-09T00:23:00Z,00000380,00000600,-000.16,0000.54,-000.15,-000.36,-000.00,-000.49,-000.10,0000.02,0000.08,25.5,05.9,0669.7,31.1
2020-06-09T00:24:00Z,00000380,00000600,0001.11,0000.82,-000.07,0000.21,0000.02,0000.08,-000.04,0000.01,-000.07,25.5,05.9,0669.7,31.1
2020-06-09T00:25:00Z,00000380,00000600,-000.35,-000.17,-000.13,-001.18,0000.14,-000.47,0000.06,-000.05,0000.23,25.5,05.8,0669.7,31.1
2020-06-09T00:26:00Z,00000380,00000600,0000.60,0000.11,0000.02,-000.59,0000.04,-000.22,0000.02,0000.06,-000.13,25.5,05.9,0669.7,31.2
2020-06-09T00:27:00Z,00000380,00000600,0000.07,-000.14,-000.07,0000.09,-000.21,0000.22,-000.09,0000.03,0000.11,25.5,05.9,0669.7,31.2
2020-06-09T00:28:00Z,00000380,00000600,0000.46,0000.24,-000.37,-000.65,-000.20,0000.36,-000.08,-000.09,0000.00,25.5,05.8,0669.7,31.2
2020-06-09T00:29:00Z,00000380,00000600,0000.06,-000.05,-000.33,-000.39,-000.09,-000.09,0000.24,0000.03,-000.10,25.4,05.9,0669.8,31.2
2020-06-09T00:30:00Z,00000380,00000600,0000.53,-000.31,0000.21,-000.29,0000.02,-000.05,-000.04,0000.08,0000.06,25.5,05.9,0669.8,31.1
2020-06-09T00:31:00Z,00000380,00000600,0000.19,0000.30,-000.11,-000.17,0000.17,-000.40,0000.08,0000.05,0000.16,25.4,05.8,0669.7,31.1
2020-06-09T00:32:00Z,00000380,00000600,0000.16,0000.92,-000.22,0000.68,0000.08,0000.24,0000.02,0000.02,-000.07,25.4,05.9,0669.7,31.1
2020-06-09T00:33:00Z,00000380,00000600,0000.30,0000.60,-000.12,-000.37,-000.04,-000.26,-000.18,0000.03,0000.09,25.5,06.0,0669.7,31.2
2020-06-09T00:34:00Z,00000380,00000600,0000.31,0000.93,-000.54,-000.29,0000.14,0000.02,0000.11,-000.16,-000.13,25.5,05.9,0669.8,31.2
2020-06-09T00:35:00Z,00000380,00000600,-000.85,0000.51,0000.33,-000.13,0000.19,-000.17,0000.01,0000.05,-000.03,25.4,05.9,0669.8,31.2
2020-06-09T00:36:00Z,00000380,00000600,-000.27,0000.58,-000.05,0000.41,-000.25,0000.31,0000.09,-000.14,-000.00,25.4,05.9,0669.8,31.2
2020-06-09T00:37:00Z,00000380,00000600,0001.36,0000.22,0000.04,-000.51,0000.11,0000.38,-000.03,0000.21,-000.00,25.4,05.9,0669.8,31.1
2020-06-09T00:38:00Z,00000380,00000600,-000.15,0000.21,-000.18,0000.37,-000.15,-000.21,0000.02,-000.07,0000.01,25.4,05.9,0669.8,31.1
2020-06-09T00:39:00Z,00000380,00000600,0000.27,0001.12,-000.20,-000.40,-000.02,0000.06,-000.02,0000.07,0000.18,25.4,05.9,0669.8,31.2
2020-06-09T00:40:00Z,00000380,00000600,0001.66,0000.10,-000.12,-000.11,-000.24,0000.02,0000.03,-000.06,-000.11,25.4,05.9,0669.8,31.2
2020-06-09T00:41:00Z,00000380,00000600,0000.16,-000.24,-000.50,0000.17,-000.07,-000.03,-000.04,-000.10,-000.00,25.4,05.9,0669.8,31.2
2020-06-09T00:42:00Z,00000380,00000600,0000.01,0000.30,-000.00,0000.22,0000.26,0000.23,0000.02,0000.28,0000.12,25.4,06.0,0669.9,31.2
2020-06-09T00:43:00Z,00000380,00000600,0001.19,0000.35,-000.69,-000.21,0000.25,-000.62,-000.01,-000.17,-000.09,25.4,05.9,0669.8,31.1
2020-06-09T00:44:00Z,00000380,00000600,0000.37,0000.01,-000.20,0000.01,-000.19,0000.38,-000.01,0000.16,0000.04,25.4,05.9,0669.9,31.1
2020-06-09T00:45:00Z,00000380,00000600,0000.10,-000.10,0000.08,0000.41,0000.30,0000.13,-000.13,-000.12,-000.00,25.4,05.9,0669.8,31.2
2020-06-09T00:46:00Z,00000380,00000600,0000.28,0000.10,0000.22,-000.12,0000.25,0000.12,0000.14,0000.07,0000.02,25.4,05.9,0669.9,31.2
2020-06-09T00:47:00Z,00000380,00000600,0000.39,-000.01,0000.08,0000.56,-000.34,0000.19,0000.09,0000.08,0000.18,25.4,05.9,0669.9,31.1
2020-06-09T00:48:00Z,00000380,00000600,0001.02,-000.13,-000.03,-000.60,-000.40,0000.47,0000.01,-000.07,-000.25,25.4,05.9,0669.9,31.1
2020-06-09T00:49:00Z,00000380,00000600,0001.66,-000.17,-000.17,0000.64,0000.16,-000.17,-000.05,0000.12,0000.19,25.4,05.9,0669.9,31.1
2020-06-09T00:50:00Z,00000380,00000600,0000.77,0000.39,0000.90,0000.32,0000.03,0000.46,0000.05,0000.00,0000.01,25.4,05.9,0669.8,31.1
2020-06-09T00:51:00Z,00000380,00000600,0000.31,0000.06,0000.06,-000.30,-000.13,-000.51,-000.04,0000.11,0000.07,25.4,06.0,0669.9,31.1
2020-06-09T00:52:00Z,00000380,00000600,0000.81,-000.20,0000.01,0000.32,-000.09,-000.04,0000.17,0000.06,-000.10,25.4,06.0,0669.9,31.1
2020-06-09T00:53:00Z,00000380,00000600,-000.15,0000.19,0000.07,0000.12,-000.15,0000.14,0000.02,-000.10,-000.04,25.4,06.0,0669.9,31.1
2020-06-09T00:54:00Z,00000380,00000600,0000.57,0000.30,0000.27,0000.35,0000.12,0000.31,-000.03,-000.01,0000.11,25.4,06.0,0669.9,31.1
2020-06-09T00:55:00Z,00000380,00000600,0000.34,-000.05,0000.16,0000.40,0000.20,-000.08,0000.07,0000.09,0000.01,25.4,05.9,0669.9,31.1
2020-06-09T00:56:00Z,00000380,00000600,-000.15,0000.75,0000.67,-000.21,-000.16,0000.05,-000.09,-000.15,-000.04,25.4,05.9,0669.9,31.1
2020-06-09T00:57:00Z,00000380,40000600,,,,,,,,,,25.4,06.3,0669.9,31.1
2020-06-09T00:58:00Z,00000380,60000600,,,,,,,,,,25.5,05.7,0669.0,31.1
2020-06-09T00:59:00Z,00000380,20000600,,,,,,,,,,25.6,05.7,0668.9,31.1
2020-06-09T01:00:00Z,00000380,20000600,,,,,,,,,,25.6,05.7,0668.9,31.1
2020-06-09T01:01:00Z,00000380,20000600,,,,,,,,,,25.6,05.7,0668.9,31.1
2020-06-09T01:02:00Z,00000380,20000600,,,,,,,,,,25.6,05.7,0668.9,31.1
2020-06-09T01:03:00Z,00000380,60000600,,,,,,,,,,25.6,05.7,0668.9,31.1
2020-06-09T01:04:00Z,00000380,40000600,0001.09,-000.13,-000.09,0001.09,0000.43,0000.28,-000.05,0000.00,0000.01,25.5,05.9,0669.9,31.1
2020-06-09T01:05:00Z,00000380,00000600,0000.01,-000.02,-000.04,0000.48,-000.03,-000.18,0000.10,0000.02,-000.01,25.4,05.7,0669.9,31.1
2020-06-09T01:06:00Z,00000380,00000600,0000.12,0000.02,-000.12,0000.77,-000.10,0000.10,-000.01,0000.21,0000.08,25.4,05.8,0669.9,31.1
2020-06-09T01:07:00Z,00000380,00000600,-000.35,0000.49,0000.38,0000.31,-000.13,-000.04,0000.12,-000.10,0000.04,25.4,05.9,0670.0,31.1
2020-06-09T01:08:00Z,00000380,00000600,-001.02,-000.17,0000.19,0001.12,0000.26,0000.41,0000.05,0000.05,-000.07,25.4,05.9,0670.0,31.1
2020-06-09T01:09:00Z,00000380,00000600,-000.62,0000.01,-000.10,0000.73,0000.15,-000.16,-000.08,-000.07,-000.02,25.4,05.9,0670.0,31.1
2020-06-09T01:10:00Z,00000380,00000600,0001.38,0000.67,0000.05,0000.41,-000.06,-000.03,0000.11,0000.04,0000.12,25.4,05.8,0669.9,31.1
2020-06-09T01:11:00Z,00000380,00000600,-000.01,-000.11,-000.25,0000.07,-000.44,0000.13,0000.07,0000.03,0000.06,25.4,05.9,0670.0,31.1
2020-06-09T01:12:00Z,00000380,00000600,0000.39,0000.09,0000.05,-000.37,-000.17,-000.25,0000.01,-000.02,-000.07,25.4,05.9,0670.0,31.1
2020-06-09T01:13:00Z,00000380,00000600,0000.34,0000.63,0000.01,0000.50,0000.14,0000.23,-000.15,-000.07,-000.02,25.3,05.9,0670.0,31.1
2020-06-09T01:14:00Z,00000380,00000600,-001.19,0000.57,-000.19,0000.32,0000.16,-000.15,-000.05,0000.04,-000.11,25.4,05.9,0670.0,31.1
2020-06-09T01:15:00Z,00000380,00000600,-000.56,0000.14,-000.13,0000.30,-000.34,0000.35,-000.02,-000.09,0000.03,25.3,05.9,0670.0,31.1
2020-06-09T01:16:00Z,00000380,00000600,0001.98,0000.29,0000.32,0000.03,0000.45,0000.54,-000.22,-000.10,0000.05,25.3,05.8,0670.0,31.1
2020-06-09T01:17:00Z,00000380,00000600,0000.65,0000.46,-000.23,0000.27,-000.05,0000.32,0000.22,0000.12,-000.07,25.3,05.7,0670.0,31.1
2020-06-09T01:18:00Z,00000380,00000600,0000.67,-000.18,0000.22,0000.33,0000.00,0000.35,0000.04,0000.02,0000.11,25.3,05.9,0670.0,31.1
2020-06-09T01:19:00Z,00000380,00000600,0000.43,-000.34,0000.08,0000.71,0000.17,0000.17,-000.08,-000.09,-000.12,25.3,05.8,0669.9,31.1
2020-06-09T01:20:00Z,00000380,00000600,-000.46,0000.39,-000.00,0000.23,0000.26,-000.00,0000.01,0000.04,0000.13,25.3,05.8,0670.0,31.1
2020-06-09T01:21:00Z,00000380,00000600,0000.06,0000.26,-000.04,0000.20,0000.02,0000.01,0000.07,0000.14,-000.09,25.3,05.8,0670.0,31.1
2020-06-09T01:22:00Z,00000380,00000600,-000.86,0000.18,0000.28,-000.06,0000.26,0000.31,0000.11,-000.04,0000.09,25.3,05.9,0670.0,31.1
2020-06-09T01:23:00Z,00000380,00000600,-000.35,-000.03,-000.12,0000.54,0000.39,0000.36,-000.02,0000.04,0000.00,25.3,05.8,0670.1,31.2
2020-06-09T01:24:00Z,00000380,00000600,0001.14,0000.33,0000.11,-000.23,-000.07,-000.13,-000.12,-000.03,-000.10,25.3,05.9,0670.1,31.1
2020-06-09T01:25:00Z,00000380,00000600,0000.42,0000.55,-000.03,-000.51,0000.23,0000.16,-000.00,-000.01,0000.10,25.3,05.8,0670.1,31.1
2020-06-09T01:26:00Z,00000380,00000600,-000.26,-000.25,-000.53,0000.40,-000.23,0000.11,-000.05,-000.17,-000.05,25.3,05.8,0670.0,31.1
2020-06-09T01:27:00Z,00000380,00000600,0000.57,-000.17,-000.08,-000.33,0000.39,0000.12,0000.15,0000.17,0000.00,25.3,05.7,0670.0,31.1
2020-06-09T01:28:00Z,00000380,00000600,0000.04,0000.14,0000.20,0000.89,0000.10,0000.25,-000.11,-000.09,0000.03,25.3,05.7,0670.1,31.1
2020-06-09T01:29:00Z,00000380,00000600,-000.21,0000.51,-000.48,0001.18,0000.10,-000.32,-000.10,-000.15,-000.14,25.3,05.8,0670.1,31.1
2020-06-09T01:30:00Z,00000380,00000600,0001.02,-000.07,-000.03,0000.89,-000.18,0000.54,0000.01,-000.02,0000.19,25.3,05.7,0670.0,31.1
2020-06-09T01:31:00Z,00000380,00000600,0000.94,0000.36,0000.12,-000.36,-000.09,0000.55,0000.01,0000.16,-000.03,25.3,05.7,0670.1,31.1
2020-06-09T01:32:00Z,00000380,00000600,0000.19,0000.67,-000.26,-000.19,-000.28,-000.56,0000.14,-000.04,-000.04,25.3,05.7,0670.1,31.1
2020-06-09T01:33:00Z,00000380,00000600,0001.28,0000.49,0000.06,-000.03,0000.28,0000.15,0000.01,0000.27,0000.27,25.3,05.8,0670.1,31.1
2020-06-09T01:34:00Z,00000380,00000600,0000.39,0000.03,0000.44,-000.90,0000.13,0000.21,0000.05,-000.06,-000.18,25.3,05.8,0670.1,31.1
2020-06-09T01:35:00Z,00000380,00000600,-001.88,0001.25,0000.10,-000.19,-000.42,0000.39,0000.05,-000.08,0000.05,25.3,05.8,0670.1,31.1
2020-06-09T01:36:00Z,00000380,00000600,0001.05,0000.43,0000.54,0000.64,0000.11,0000.66,0000.00,0000.08,0000.02,25.3,05.8,0670.1,31.1
2020-06-09T01:37:00Z,00000380,00000600,-000.65,-000.14,0000.13,-000.07,0000.20,0000.04,0000.08,-000.03,-000.03,25.3,05.8,0670.1,31.1
2020-06-09T01:38:00Z,00000380,00000600,-000.63,0000.20,-000.04,-000.54,-000.22,-000.28,-000.15,-000.21,-000.02,25.3,05.8,0670.1,31.1
2020-06-09T01:39:00Z,00000380,00000600,0000.65,-000.04,0000.01,0000.08,-000.20,-000.10,0000.02,0000.12,0000.04,25.3,05.7,0670.1,31.1
2020-06-09T01:40:00Z,00000380,00000600,0000.74,-000.34,0000.37,0000.09,0000.09,0000.20,-000.11,-000.06,0000.06,25.3,05.7,0670.1,31.1
2020-06-09T01:41:00Z,00000380,00000600,-001.43,0000.18,0000.28,0000.39,0000.33,0000.09,0000.14,-000.07,-000.15,25.3,05.7,0670.1,31.1
2020-06-09T01:42:00Z,00000380,00000600,0000.75,-000.59,0000.04,0000.09,-000.18,-000.02,-000.04,0000.29,-000.04,25.3,05.8,0670.2,31.1
2020-06-09T01:43:00Z,00000380,00000600,0000.47,0000.15,0000.22,0000.12,0000.07,-000.12,0000.02,-000.20,0000.18,25.2,05.7,0670.2,31.1
2020-06-09T01:44:00Z,00000380,00000600,0000.17,0000.11,0000.39,0000.85,-000.31,0000.05,0000.22,0000.29,-000.02,25.3,05.7,0670.1,31.1
2020-06-09T01:45:00Z,00000380,00000600,-001.41,0000.55,0000.38,0000.09,0000.22,0000.29,-000.05,-000.14,0000.12,25.2,05.8,0670.1,31.1
2020-06-09T01:46:00Z,00000380,00000600,0000.79,0000.20,0000.42,0000.60,-000.40,0000.53,-000.12,-000.08,-000.17,25.2,05.9,0670.1,31.1
2020-06-09T01:47:00Z,00000380,00000600,0000.82,0000.21,0000.08,0000.81,0000.29,0000.27,0000.12,0000.02,0000.03,25.2,05.8,0670.2,31.2
2020-06-09T01:48:00Z,00000380,00000600,0000.51,0000.10,-000.26,0000.83,-000.28,-000.20,-000.06,0000.15,0000.11,25.2,05.8,0670.2,31.1
2020-06-09T01:49:00Z,00000380,00000600,0000.40,0000.36,-000.29,0000.17,0000.08,0000.07,-000.00,-000.03,-000.09,25.2,05.8,0670.2,31.1
2020-06-09T01:50:00Z,00000380,00000600,0000.19,-000.23,0000.71,0000.16,-000.10,0000.08,0000.09,0000.05,0000.14,25.2,05.9,0670.2,31.1
2020-06-09T01:51:00Z,00000380,00000600,-000.61,0000.66,-000.19,0000.47,0000.53,0000.08,0000.06,-000.10,-000.01,25.2,05.8,0670.2,31.1
2020-06-09T01:52:00Z,00000380,00000600,0001.43,0000.02,0000.05,0000.76,0000.00,0000.24,-000.03,0000.19,0000.09,25.2,05.8,0670.2,31.1
2020-06-09T01:53:00Z,00000380,00000600,-000.07,-000.23,0000.14,0000.24,0000.25,-000.03,-000.12,-000.22,-000.20,25.2,05.8,0670.2,31.1
2020-06-09T01:54:00Z,00000380,00000600,0001.26,0000.23,0000.70,0000.53,-000.02,0000.69,-000.13,-000.09,0000.07,25.2,05.8,0670.2,31.1
2020-06-09T01:55:00Z,00000380,00000600,-000.33,-000.15,0001.07,0000.34,-000.07,0000.12,0000.11,0000.13,-000.01,25.2,05.8,0670.2,31.1
2020-06-09T01:56:00Z,00000380,00000600,0000.27,0000.05,0000.71,-000.32,-000.09,0000.10,0000.01,0000.03,-000.03,25.2,05.8,0670.2,31.2
2020-06-09T01:57:00Z,00000380,40000600,,,,,,,,,,25.3,05.9,0670.2,31.1
2020-06-09T01:58:00Z,00000380,60000600,,,,,,,,,,25.3,05.7,0669.2,31.1
2020-06-09T01:59:00Z,00000380,20000600,,,,,,,,,,25.4,05.7,0669.2,31.2
2020-06-09T02:00:00Z,00000380,20000600,,,,,,,,,,25.4,05.5,0669.2,31.1
2020-06-09T02:01:00Z,00000380,20000600,,,,,,,,,,25.4,05.5,0669.2,31.1
2020-06-09T02:02:00Z,00000380,20000600,,,,,,,,,,25.4,05.5,0669.2,31.1
2020-06-09T02:03:00Z,00000380,60000600,,,,,,,,,,25.5,05.5,0669.2,31.1
2020-06-09T02:04:00Z,00000380,40000600,-000.18,0000.50,0000.31,0000.60,0000.10,0000.16,0000.01,-000.18,-000.05,25.3,05.8,0670.2,31.1
2020-06-09T02:05:00Z,00000380,00000600,0000.68,0000.02,0000.02,-000.02,-000.26,-000.56,-000.06,0000.08,-000.07,25.3,05.8,0670.2,31.1
2020-06-09T02:06:00Z,00000380,00000600,0000.87,-000.17,0000.04,0000.77,0000.24,0000.16,0000.02,-000.03,-000.00,25.2,05.8,0670.2,31.1
2020-06-09T02:07:00Z,00000380,00000600,0000.07,0000.06,-000.11,0000.48,-000.39,-001.00,0000.11,0000.05,0000.19,25.2,05.8,0670.2,31.1
2020-06-09T02:08:00Z,00000380,00000600,-000.71,0000.11,0000.37,-000.25,-000.06,0000.13,-000.11,-000.02,-000.18,25.2,05.8,0670.2,31.1
2020-06-09T02:09:00Z,00000380,00000600,-001.40,0000.41,0000.22,0000.57,-000.16,0000.25,0000.04,-000.09,-000.20,25.2,05.8,0670.2,31.1
2020-06-09T02:10:00Z,00000380,00000600,-000.01,-000.41,0000.13,-000.12,0000.24,0000.01,-000.05,0000.11,0000.08,25.2,05.8,0670.2,31.1
2020-06-09T02:11:00Z,00000380,00000600,-001.10,0000.45,0000.11,0000.00,-000.15,0000.42,-000.09,-000.19,0000.04,25.2,05.8,0670.2,31.1
2020-06-09T02:12:00Z,00000380,00000600,0000.56,-000.14,-000.39,0000.20,-000.06,-000.18,0000.14,0000.32,0000.12,25.2,05.7,0670.2,31.1
2020-06-09T02:13:00Z,00000380,00000600,0001.21,-000.03,-000.06,0000.23,0000.24,0000.38,-000.06,-000.15,-000.04,25.2,05.7,0670.3,31.1
2020-06-09T02:14:00Z,00000380,00000600,0000.10,-000.24,0000.36,0000.84,-000.38,-000.05,-000.01,0000.01,-000.04,25.2,05.8,0670.2,31.1
2020-06-09T02:15:00Z,00000380,00000600,-000.37,-000.25,0000.26,0000.44,-000.10,0000.18,0000.03,-000.15,0000.05,25.2,05.7,0670.2,31.1
2020-06-09T02:16:00Z,00000380,00000600,0000.28,-000.62,0000.72,0000.11,0000.12,0000.05,-000.09,0000.18,0000.07,25.2,05.7,0670.2,31.1
2020-06-09T02:17:00Z,00000380,00000600,-000.45,-000.86,0000.32,0001.05,0000.19,-000.43,-000.06,-000.18,-000.14,25.2,05.7,0670.2,31.1
2020-06-09T02:18:00Z,00000380,00000600,-000.64,0000.35,0000.50,0000.66,0000.18,-000.04,-000.05,-000.09,-000.05,25.2,05.7,0670.2,31.2
2020-06-09T02:19:00Z,00000380,00000600,-000.26,0000.02,0000.25,0001.43,-000.11,-000.02,-000.02,0000.07,-000.05,25.2,05.7,0670.2,31.1
2020-06-09T02:20:00Z,00000380,00000600,0000.92,-000.32,-000.15,0000.83,-000.19,-000.61,0000.00,-000.03,-000.06,25.2,05.6,0670.2,31.1
2020-06-09T02:21:00Z,00000380,00000600,-001.31,0000.63,-000.18,0000.33,0000.48,-000.47,0000.05,-000.16,0000.04,25.2,05.6,0670.2,31.1
2020-06-09T02:22:00Z,00000380,00000600,-000.37,0000.19,-000.05,0000.69,-000.12,-000.56,-000.10,0000.10,0000.15,25.2,05.6,0670.2,31.1
2020-06-09T02:23:00Z,00000380,00000600,-000.62,-000.18,0000.75,-000.09,0000.19,0000.05,0000.16,0000.28,-000.09,25.2,05.6,0670.2,31.1
2020-06-09T02:24:00Z,00000380,00000600,0001.04,0000.32,0000.43,-000.34,0000.25,-000.06,0000.15,0000.00,0000.06,25.2,05.7,0670.2,31.1
2020-06-09T02:25:00Z,00000380,00000600,-001.33,0000.24,0000.43,-000.25,-000.19,0000.56,0000.02,-000.18,0000.00,25.2,05.7,0670.2,31.1
2020-06-09T02:26:00Z,00000380,00000600,0000.73,-000.05,0000.44,0000.24,0000.23,-000.23,-000.01,-000.02,-000.11,25.2,05.6,0670.3,31.2
2020-06-09T02:27:00Z,00000380,00000600,0000.81,-000.27,-000.12,-000.41,-000.23,0000.40,-000.08,0000.17,0000.14,25.2,05.7,0670.3,31.1
2020-06-09T02:28:00Z,00000380,00000600,-000.55,0000.66,-000.06,-000.17,0000.32,0000.54,0000.01,-000.14,0000.02,25.2,05.6,0670.3,31.1
2020-06-09T02:29:00Z,00000380,00000600,-001.02,0000.36,-000.13,0000.33,-000.16,0000.28,0000.14,0000.11,0000.10,25.2,05.7,0670.3,31.1
2020-06-09T02:30:00Z,00000380,00000600,0000.16,-000.10,0000.07,0000.26,0000.25,-000.03,-000.11,-000.09,-000.18,25.2,05.6,0670.3,31.1
2020-06-09T02:31:00Z,00000380,00000600,0000.52,0000.19,0000.35,-000.06,-000.16,-000.56,0000.13,0000.16,0000.08,25.1,05.6,0670.3,31.1
2020-06-09T02:32:00Z,00000380,00000600,-000.37,0000.26,-000.09,0000.13,-000.04,-000.24,-000.01,-000.00,0000.07,25.1,05.8,0670.3,31.1
2020-06-09T02:33:00Z,00000380,00000600,0000.35,-000.19,0000.62,0000.14,-000.43,0000.37,0000.03,0000.10,-000.15,25.1,05.7,0670.3,31.1
2020-06-09T02:34:00Z,00000380,00000600,0000.39,0000.46,-000.03,0000.27,0000.07,0000.24,-000.12,-000.13,0000.13,25.1,05.6,0670.3,31.1
2020-06-09T02:35:00Z,00000380,00000600,-000.93,0000.26,0000.02,0000.46,0000.30,0000.19,0000.09,0000.23,0000.13,25.1,05.6,0670.3,31.1
2020-06-09T02:36:00Z,00000380,00000600,-000.84,-000.07,0000.86,0000.36,0000.10,0000.11,-000.04,-000.07,-000.17,25.1,05.7,0670.3,31.1
2020-06-09T02:37:00Z,00000380,00000600,-000.44,-000.47,0000.31,0000.38,-000.31,-000.27,0000.13,0000.04,0000.24,25.1,05.7,0670.4,31.1
2020-06-09T02:38:00Z,00000380,00000600,0000.31,-000.14,0000.31,0000.41,0000.33,0000.12,-000.09,-000.14,-000.22,25.1,05.7,0670.4,31.1
2020-06-09T02:39:00Z,00000380,00000600,-000.41,0000.14,0000.17,0000.56,0000.13,-000.10,-000.05,-000.00,0000.05,25.1,05.7,0670.4,31.1
2020-06-09T02:40:00Z,00000380,00000600,0000.61,0000.05,0000.00,0000.08,-000.08,0000.05,0000.13,0000.00,-000.02,25.1,05.7,0670.3,31.1
2020-06-09T02:41:00Z,00000380,00000600,-000.04,0000.56,0000.38,0000.07,0000.24,-000.08,0000.04,0000.21,-000.05,25.1,05.6,0670.3,31.1
2020-06-09T02:42:00Z,00000380,00000600,0000.15,0000.03,0000.29,0001.33,-000.09,0000.01,-000.04,-000.19,0000.17,25.1,05.7,0670.4,31.1
2020-06-09T02:43:00Z,00000380,00000600,0000.11,0000.12,0000.08,-000.37,0000.07,-000.17,0000.05,0000.08,-000.19,25.1,05.6,0670.3,31.1
2020-06-09T02:44:00Z,00000380,00000600,0000.98,-000.03,0000.15,-000.34,-000.16,-000.02,0000.05,-000.03,0000.21,25.1,05.6,0670.3,31.1
2020-06-09T02:45:00Z,00000380,00000600,-000.67,-000.11,-000.25,0000.86,0000.07,-000.64,-000.12,-000.06,-000.23,25.1,05.6,0670.3,31.1
2020-06-09T02:46:00Z,00000380,00000600,0001.42,-000.50,0000.14,-000.13,0000.31,-000.22,-000.11,0000.04,0000.05,25.1,05.6,0670.3,31.1
2020-06-09T02:47:00Z,00000380,00000600,0001.06,-000.42,0000.52,-000.24,-000.06,0000.58,0000.06,0000.02,0000.10,25.1,05.6,0670.3,31.1
2020-06-09T02:48:00Z,00000380,00000600,-000.13,0000.66,-000.03,0000.11,-000.40,-000.16,-000.07,0000.07,-000.02,25.1,05.6,0670.3,31.1
2020-06-09T02:49:00Z,00000380,00000600,0000.87,0000.49,0000.12,0000.23,-000.16,-000.00,0000.15,-000.02,-000.01,25.1,05.6,0670.3,31.1
2020-06-09T02:50:00Z,00000380,00000600,-000.82,-000.19,-000.04,-000.07,0000.24,0000.11,-000.04,-000.14,0000.02,25.1,05.6,0670.3,31.1
2020-06-09T02:51:00Z,00000380,00000600,-000.29,-000.07,-000.43,0000.69,-000.57,-000.03,-000.07,0000.01,0000.01,25.1,05.6,0670.3,31.2
2020-06-09T02:52:00Z,00000380,00000600,0000.41,-000.20,0000.22,0000.10,-000.43,-000.18,-000.01,0000.07,-000.03,25.1,05.6,0670.3,31.1
2020-06-09T02:53:00Z,00000380,00000600,0001.02,-000.24,-000.08,-001.16,-000.27,0000.10,0000.17,0000.06,-000.04,25.1,05.6,0670.4,31.1
2020-06-09T02:54:00Z,00000380,00000600,-000.15,0000.28,0000.37,0000.91,0000.13,-000.12,-000.06,0000.00,-000.01,25.1,05.6,0670.3,31.1
2020-06-09T02:55:00Z,00000380,00000600,-001.24,0000.12,0000.11,0000.11,-000.56,-000.45,0000.07,0000.01,0000.09,25.1,05.6,0670.4,31.1
2020-06-09T02:56:00Z,00000380,00000600,0000.11,-000.10,-000.19,0000.97,0000.27,-000.10,-000.00,-000.16,-000.05,25.1,05.6,0670.4,31.1
2020-06-09T02:57:00Z,00000380,40000600,,,,,,,,,,25.2,05.5,0670.3,31.1
2020-06-09T02:58:00Z,00000380,60000600,,,,,,,,,,25.2,05.5,0669.4,31.1
2020-06-09T02:59:00Z,00000380,20000600,,,,,,,,,,25.3,05.4,0669.4,31.1
2020-06-09T03:00:00Z,00000380,20000600,,,,,,,,,,25.3,05.4,0669.4,31.1
2020-06-09T03:01:00Z,00000380,20000600,,,,,,,,,,25.4,05.4,0669.4,31.1
2020-06-09T03:02:00Z,00000380,20000600,,,,,,,,,,25.4,05.4,0669.4,31.1
2020-06-09T03:03:00Z,00000380,60000600,,,,,,,,,,25.4,05.4,0669.4,31.1
2020-06-09T03:04:00Z,00000380,40000600,0000.75,0000.29,0000.86,0000.49,0000.17,-000.10,0000.15,-000.01,-000.04,25.2,05.5,0670.3,31.1
2020-06-09T03:05:00Z,00000380,00000600,-000.25,0000.33,0000.77,-000.35,-000.14,-000.62,0000.07,0000.02,-000.00,25.1,05.6,0670.4,31.1
2020-06-09T03:06:00Z,00000380,00000600,0000.47,0000.66,0000.04,0000.18,0000.01,-000.44,-000.09,-000.01,0000.04,25.1,05.6,0670.4,31.1
2020-06-09T03:07:00Z,00000380,00000600,0000.04,0000.60,0000.27,0000.69,0000.39,0000.24,-000.11,-000.05,0000.06,25.1,05.6,0670.4,31.1
2020-06-09T03:08:00Z,00000380,00000600,0000.61,0000.07,0000.71,0000.54,-000.14,0000.03,0000.09,0000.07,-000.04,25.1,05.6,0670.4,31.1
2020-06-09T03:09:00Z,00000380,00000600,-000.35,-000.24,0000.49,-000.07,-000.15,0000.50,0000.01,0000.10,0000.04,25.1,05.6,0670.4,31.1
2020-06-09T03:10:00Z,00000380,00000600,-000.02,0000.39,0000.83,0000.09,-000.19,0000.01,0000.02,-000.04,-000.13,25.1,05.6,0670.4,31.1